Change the Weather History Date:

Thursday, September 19, 2013

  Actual Average Record
Temperature  
Mean Temperature 47 °F 57 °F  
Max Temperature 54 °F 71 °F 87 °F (2008)
Min Temperature 40 °F 42 °F 30 °F (2006)
Degree Days  
Heating Degree Days 18 9  
Month to date heating degree days 28 111  
Since 1 July heating degree days 40 163  
Cooling Degree Days 0 1  
Month to date cooling degree days 96 39  
Year to date cooling degree days 583 510  
Moisture  
Dew Point 41 °F    
Average Humidity 76    
Maximum Humidity 92    
Minimum Humidity 59    
Precipitation  
Precipitation 0.00 in 0.04 in 0.21 in (1998)
Month to date precipitation 1.84 0.80  
Year to date precipitation 11.32 12.94  
Sea Level Pressure  
Sea Level Pressure 29.98 in    
Wind  
Wind Speed 19 mph (WNW)    
Max Wind Speed 38 mph    
Max Gust Speed 44 mph    
T = Trace of Precipitation, MM = Missing Value Source: NWS Daily Summary

Daily Weather History Graph

Daily Weather History Graph

Search for Another Location

Airport or City:

Trip Planner

Search our weather history database for the weather conditions in past years. The results will help you decide how hot, cold, wet, or windy it might be!

Date:

Astronomy

Sep. 19, 2013 Rise Set
Actual Time 6:37 AM MDT 6:56 PM MDT
Civil Twilight 6:08 AM MDT 7:26 PM MDT
Nautical Twilight 5:33 AM MDT 8:01 PM MDT
Astronomical Twilight 4:56 AM MDT 8:37 PM MDT
Moon 6:52 PM MDT (9/19) 6:52 AM MDT (9/19)
Length of Visible Light 13h 18m
Length of Day
12h 19m
Full, 100% of the Moon is Illuminated
Sep 19
Full
Sep 26
Last Quarter
Oct 4
New
Oct 11
First Quarter
Oct 18
Full

Hourly Weather History & Observations

Time (MDT) Temp. Windchill Dew Point Humidity Pressure Visibility Wind Dir Wind Speed Gust Speed Precip Events Conditions
12:56 AM 51.1 °F - 45.0 °F 80% 29.79 in - WNW 11.5 mph - N/A   Unknown
1:56 AM 50.0 °F - 43.0 °F 77% 29.81 in - West 12.7 mph - N/A   Unknown
2:56 AM 48.0 °F - 43.0 °F 83% 29.83 in - WNW 13.8 mph - N/A   Unknown
3:56 AM 48.0 °F - 43.0 °F 83% 29.85 in - West 16.1 mph - N/A   Unknown
4:56 AM 48.0 °F - 42.1 °F 80% 29.87 in - West 15.0 mph - N/A   Unknown
5:56 AM 48.0 °F - 41.0 °F 77% 29.90 in - West 20.7 mph - N/A   Unknown
6:56 AM 46.9 °F - 39.9 °F 77% 29.92 in - West 26.5 mph 29.9 mph N/A   Unknown
7:56 AM 48.9 °F - 41.0 °F 74% 29.92 in - WNW 28.8 mph 40.3 mph N/A   Unknown
8:56 AM 52.0 °F - 43.0 °F 71% 29.94 in - WNW 35.7 mph 43.7 mph N/A   Unknown
9:56 AM 52.0 °F - 43.0 °F 71% 29.98 in - NW 32.2 mph 43.7 mph N/A   Unknown
10:56 AM 53.1 °F - 42.1 °F 66% 29.99 in - NW 28.8 mph 36.8 mph N/A   Unknown
11:56 AM 52.0 °F - 39.9 °F 63% 30.04 in - WNW 28.8 mph 34.5 mph N/A   Unknown
12:56 PM 54.0 °F - 39.0 °F 57% 30.04 in - WNW 24.2 mph 33.4 mph N/A   Unknown
1:56 PM 52.0 °F - 39.0 °F 61% 30.05 in - WNW 23.0 mph 33.4 mph N/A   Unknown
2:56 PM 51.1 °F - 39.0 °F 63% 30.06 in - WNW 24.2 mph 29.9 mph N/A   Unknown
3:56 PM 52.0 °F - 39.9 °F 63% 30.07 in - NW 24.2 mph 27.6 mph N/A   Unknown
4:56 PM 51.1 °F - 39.9 °F 66% 30.06 in - NW 17.3 mph - N/A   Unknown
5:56 PM 51.1 °F - 39.0 °F 63% 30.06 in - WNW 19.6 mph 25.3 mph N/A   Unknown
6:56 PM 51.1 °F - 39.0 °F 63% 30.06 in - WNW 16.1 mph 23.0 mph N/A   Unknown
7:56 PM 50.0 °F - 39.9 °F 68% 30.06 in - WNW 10.4 mph - N/A   Unknown
8:56 PM 46.0 °F 41.0 °F 39.9 °F 79% 30.07 in - West 10.4 mph - N/A   Unknown
9:56 PM 43.0 °F 37.7 °F 39.0 °F 86% 30.08 in - WSW 9.2 mph - N/A   Unknown
10:56 PM 42.1 °F 36.6 °F 37.9 °F 85% 30.09 in - WNW 9.2 mph - N/A   Unknown
11:56 PM 39.9 °F 32.9 °F 37.0 °F 89% 30.10 in - WNW 11.5 mph - N/A   Unknown